Location: Waco, TX
(31.5480°N, 97.1670°W)
Time: 23:48:08
(UTC-05:00)

ISS - Pass Details

Date: 21 September 2017
Orbit: 401 x 408 km, 51.6° (Epoch: 22 October)

Event Time Altitude Azimuth Distance (km) Brightness Sun altitude
Rises 07:13:12 0° 290° (WNW) 2,331 - -1.5°
Exits shadow 07:13:21 - 289° (WNW) 2,280 -0.6 -1.5°
Reaches altitude 10° 07:16:35 10° 252° (WSW) 1,464 -1.6 -0.8°
Maximum altitude 07:17:33 11° 235° (SW) 1,402 -1.6 -0.6°
Drops below altitude 10° 07:18:32 10° 218° (SW) 1,460 -1.4 -0.4°
Sets 07:21:54 0° 180° (S) 2,312 0.0 0.3°
